Welcome to the New NWS' Forecast!
Most changes are behind the scenes, but click here for differences you might notice.
Latest weather observations around

Tuscaloosa Regional Airport (KTCL)

Using English Units (Switch to International System of Units)
Date/ Time (CST) Wind (mph) Vis. (mi) Weather Sky Cond. Temp (°F) Rel. Humidity Wind Chill (°F) Heat Index (°F) Pressure Precip. (in)
Air Dwpt 6 hour Altimeter (inHg) Sea level (inHg) 1 hr 3 hr 6 hr
Max Min
Jan 23 10:53 W 9 10 Clear CLR 52 33     48%     30.13 30.13      
Jan 23 09:53 W 9 10 Clear CLR 50 33     52% 46   30.13 30.12      
Jan 23 08:53 W 10 10 Clear CLR 47 32     56% 42   30.1 30.1      
Jan 23 07:53 WSW 3 10 Clear CLR 42 33     70% 40   30.08 30.07      
Jan 23 06:53 SW 5 10 Clear CLR 40 31     70% 37   30.05 30.05      
Jan 23 05:53 WSW 6 10 Clear CLR 43 31     62% 39   30.03 30.03      
Jan 23 04:53 W 8 10 Clear CLR 45 31     58% 41   30.01 30.01      
Jan 23 03:53 W 9 10 Clear CLR 47 30     52% 43   30 30      
Jan 23 02:53 W 7 10 Clear CLR 48 30     50% 45   29.99 29.99      
Jan 23 01:53 W 14 10 Clear CLR 50 31     48% 45   29.98 29.98      
Jan 23 00:53 W 9 10 Clear CLR 50 32     50% 46   29.98 29.97      
Jan 22 23:53 W 9 10 Clear CLR 52 32     46%     29.96 29.96      
Jan 22 22:53 W 9 10 Clear CLR 53 34     48%     29.94 29.93      
Jan 22 21:53 WSW 7 10 Clear CLR 54 38     55%     29.94 29.93      
Jan 22 20:53 W 11 10 Clear CLR 57 44     62%     29.92 29.91      
Jan 22 19:53 SSW 6 10 Clear CLR 54 49     83%     29.9 29.9      
Jan 22 18:53 SSW 7 10 Clear CLR 59 53     81%     29.88 29.87      
Jan 22 17:53 S 6 8 Mostly Clear FEW014 60 60     100%     29.86 29.85     0
Jan 22 16:53 S 7 10 Clear CLR 64 62     93%     29.84 29.83      
Jan 22 16:31 S 6 10 Partly Cloudy SCT013 65 63     93%     29.84        
Jan 22 16:13 S 5 10 Mostly Cloudy BKN013 66 63     90%     29.84        
Jan 22 15:53 S 7 10 Mostly Cloudy BKN015 BKN065 66 63     90%     29.84 29.83      
Jan 22 15:05 S 8 10 Cloudy BKN012 BKN019 OVC060 65 63     93%     29.83        
Jan 22 14:53 S 9 10 Cloudy SCT012 BKN019 OVC060 65 63     93%     29.83 29.82   0  
Jan 22 14:51 S 10 10 Cloudy SCT014 BKN019 OVC060 64 63     94%     29.83        
Jan 22 14:17 S 8 10 Cloudy OVC012 64 63     96%     29.82        
Jan 22 13:53 5 9 Cloudy BKN008 OVC015 62 62     100%     29.83 29.83 0    
Jan 22 12:53 S 8 3 Heavy Rain and Fog/Mist BKN012 OVC020 62 61     96%     29.87 29.86 0    
Jan 22 12:39 S 11 10 Cloudy BKN011 BKN020 OVC026 63 62     97%     29.87   0    
Jan 22 12:21 S 7 3 Light Rain and Fog/Mist FEW009 BKN023 OVC070 63 62     97%     29.87   0    
Jan 22 12:15 S 9 1.75 Heavy Rain and Fog/Mist FEW009 BKN028 OVC070 62 62     100%     29.87   0    
Jan 22 12:11 SSE 8 2.5 Rain and Fog/Mist FEW009 BKN045 OVC100 62 62     100%     29.88   0    
Jan 22 11:53 SE 11 3 Rain and Fog/Mist FEW015 BKN075 OVC095 62 61     96%     29.87 29.86 0   0
Jan 22 11:37 SSE 13 2.5 Rain and Fog/Mist BKN013 BKN060 OVC090 62 61     96%     29.91   0    
Jan 22 11:32 S 15 2.5 Thunderstorms and Rain and Fog/Mist BKN013 BKN018 OVC060 62 60     93%     29.93   0    
Jan 22 11:24 S 9 3 Thunderstorms and Rain and Fog/Mist OVC013 62 60     93%     29.95   0    
Jan 22 11:08 SSE 8 10 Cloudy OVC014 63 60     90%     29.94        
Jan 22 10:53 6 10 Cloudy OVC015 63 59     87%     29.95 29.94 0    
Jan 22 09:53 S 9 10 Cloudy OVC015 62 57     84%     29.98 29.97      
Jan 22 08:53 S 10 10 Cloudy OVC016 60 55     83%     29.99 29.98      
Jan 22 07:53 S 13 10 Cloudy BKN017 OVC028 60 54     80%     29.98 29.97      
Jan 22 06:53 SE 10 10 Cloudy OVC024 58 50     75%     29.98 29.97      
Jan 22 05:53 SE 9 10 Mostly Cloudy BKN022 58 47     67%     29.99 29.98      
Jan 22 05:45 SE 9 10 Mostly Cloudy BKN022 58 46     65%     29.99        
Jan 22 04:53 ESE 5 10 Mostly Cloudy BKN095 52 44     74%     30 29.99      
Jan 22 03:53 S 7 10 Clear CLR 57 44     62%     30.01 30      
Jan 22 02:53 SSE 8 10 Clear CLR 59 43     55%     30.01 30.01      
Jan 22 01:53 S 8 10 Clear CLR 59 44     58%     30.03 30.02      
Jan 22 00:53 SSE 5 10 Clear CLR 59 45     60%     30.03 30.02      
Jan 21 23:53 S 5 10 Clear CLR 57 46     67%     30.05 30.04      
Jan 21 22:53 ESE 7 10 Clear CLR 60 46     60%     30.07 30.06      
Jan 21 20:53 3 10 Clear CLR 62 46     56%     30.09 30.09      
Jan 21 19:53 SE 3 10 Clear CLR 62 46     56%     30.09 30.09      
Jan 21 18:53 ESE 3 10 Clear CLR 63 46     54%     30.1 30.1      
Jan 21 17:53 SE 5 10 Clear CLR 66 46     48%     30.11 30.1      
Jan 21 16:53 S 6 10 Clear CLR 68 45     43%     30.11 30.1      
Jan 21 15:53 S 10 10 Clear CLR 72 45     38%   71 30.11 30.1      
Jan 21 14:53 SE 10 10 Clear CLR 72 44     37%   71 30.1 30.1      
Jan 21 13:53 7 10 Clear CLR 72 45     38%   71 30.13 30.12      
Jan 21 12:53 SSW 10 10 Clear CLR 71 46     41%   70 30.15 30.14      
Jan 21 11:53 SSE 10 10 Clear CLR 68 46     45%     30.18 30.18      
Jan 21 10:53 S 8 10 Clear CLR 64 47     54%     30.23 30.23      
Jan 21 09:53 6 10 Clear CLR 59 44     58%     30.26 30.26      
Jan 21 08:53 ESE 5 10 Clear CLR 51 43     74%     30.25 30.24      
Jan 21 07:53 WNW 3 10 Mostly Cloudy BKN090 40 38     93% 38   30.25 30.24      
Jan 21 06:53 Calm 10 Mostly Clear FEW090 35 34     96%     30.23 30.23      
Jan 21 05:53 Calm 10 Clear CLR 35 35     100%     30.23 30.22      
Jan 21 04:53 Calm 10 Clear CLR 36 35     96%     30.21 30.2      
Jan 21 03:53 Calm 10 Clear CLR 35 34     96%     30.21 30.21      
Jan 21 01:53 Calm 10 Clear CLR 38 36     92%     30.21 30.21      
Jan 21 00:53 N 3 10 Clear CLR 41 37     86% 39   30.21 30.2      
Jan 20 23:53 Calm 10 Clear CLR 42 38     85%     30.22 30.21      
Jan 20 22:53 Calm 10 Clear CLR 43 37     79%     30.22 30.22      
Jan 20 21:53 Calm 10 Clear CLR 44 38     79%     30.23 30.22      
Jan 20 20:53 Calm 10 Clear CLR 45 38     76%     30.23 30.22      
Jan 20 19:53 Calm 10 Clear CLR 53 40     61%     30.23 30.22      
Jan 20 18:53 Calm 10 Clear CLR 55 39     55%     30.23 30.22      
Jan 20 17:53 SSE 5 10 Clear CLR 61 38     42%     30.22 30.22      
Jan 20 16:53 S 8 10 Clear CLR 62 37     39%     30.21 30.21      
Jan 20 15:53 S 9 10 Clear CLR 65 36     34%     30.2 30.2      
Jan 20 14:53 S 8 10 Clear CLR 66 35     32%     30.2 30.2      
Jan 20 13:53 SSW 8 10 Mostly Clear FEW060 65 34     32%     30.21 30.21      
Jan 20 12:53 S 8 10 Mostly Clear FEW060 64 34     33%     30.24 30.23      
Jan 20 11:53 S 10 10 Clear CLR 61 32     33%     30.27 30.27      
Jun 11 13:53 7 10 Mostly Clear FEW050 90 67     47%   93 30.1 30.09      
Jun 11 12:53 SE 7 10 Mostly Clear FEW048 88 67     50%   91 30.11 30.1      
Jun 10 23:53 NNE 3 10 Clear CLR 71 66     84%   72 30.07 30.06 0    
Jun 10 11:53 3 10 Partly Cloudy SCT080 86 60     42%   86 30.07 30.06      
Jun 10 09:53 6 10 Clear CLR 81 62     53%   82 30.07 30.06      
Jun 09 15:53 SW 7 10 Clear CLR 82 58     44%   82 29.94 29.93      
Jun 09 01:53 Calm 8 Clear CLR 61 59     93%     29.92 29.91      
Jun 08 10:53 N 8 10 Clear CLR 76 59     56%   76 29.94 29.93      
Jun 06 03:53 NE 3 10 Cloudy OVC007 72 70     93%   73 29.77 29.76      
Jun 05 21:43 NE 5 10 Cloudy BKN009 OVC023 72 71     97%   73 29.8   0